Regional Weather Roundup
Issued by NWS Jackson, KY

Home | Current Version | Previous Version | Graphics & Text | Print | Product List | Glossary On
Versions: 1 2 3 4 5 6 7 8 9 10 11 12 13 14 15 16 17 18 19 20 21 22 23 24 25 26 27
000
ASUS43 KJKL 260510
RWRJKL

EAST KENTUCKY HOURLY WEATHER ROUNDUP
NATIONAL WEATHER SERVICE JACKSON KY
100 AM EDT THU APR 26 2018

NOTE: "FAIR" INDICATES FEW OR NO CLOUDS BELOW 12,000 FEET WITH
NO SIGNIFICANT WEATHER AND/OR OBSTRUCTIONS TO VISIBILITY.

* THESE REPORTS ARE NOT UNDER NWS QUALITY CONTROL AND MAY NOT
  REPORT WEATHER SUCH AS PRECIPITATION AND FOG.

KYZ079-080-083-085-087-088-110-112-115-119-120-260600
...EASTERN KENTUCKY...

CITY           SKY/WX    TMP DP  RH WIND       PRES   REMARKS
JACKSON          N/A     51  49  92 CALM      29.92S
LONDON         FOG       49  49 100 CALM      29.93S VSB 1/4
SOMERSET*        N/A     50  50 100 CALM      29.94F
WILLIAMSBURG*    N/A     48  48 100 CALM      29.94S
MIDDLESBORO*     N/A     48  48 100 CALM      29.95R FOG
HARLAN APT*    CLOUDY    49  49 100 CALM      29.94R VSB 1/4
PIKE CO APT*     N/A     51  51 100 CALM      29.92S
BIG SANDY APT* FOG       49  49 100 CALM      29.92S VSB 1/4
MOREHEAD APT*  CLOUDY    52  48  87 CALM      29.93S
ASHLAND*       LGT RAIN  46  46 100 CALM      29.92S FOG
$$

KYZ035-036-041-042-044-050-067-078-099-260600
...CENTRAL KENTUCKY...

CITY           SKY/WX    TMP DP  RH WIND       PRES   REMARKS
MT STERLING*     N/A     48  46  93 CALM      29.93S
FLEMING/MASON*   N/A     54  49  83 CALM      29.93S
DANVILLE*        N/A     48  48 100 CALM      29.93F
LEXINGTON        N/A     56  44  64 N3        29.92F
FRANKFORT        N/A     53  45  74 N3        29.91F
LOUISVILLE     CLOUDY    60  46  59 N3        29.91F
LEBANON*         N/A     55  48  76 CALM      29.92F
GLASGOW*         N/A     54  51  90 E3        29.91F
BOWLING GREEN    N/A     59  53  80 CALM      29.91F
$$

KYZ091>093-OHZ055-061-077-WVZ005-015-034-035-042-260600
...SOUTHERN OHIO/WEST VIRGINIA...

CITY           SKY/WX    TMP DP  RH WIND       PRES   REMARKS
COVINGTON      CLOUDY    52  35  52 N12       29.93S
COLUMBUS         N/A     49  44  83 NE7       29.90S
DAYTON           N/A     45  35  68 NW9       29.94S
WILMINGTON       N/A     52  43  71 NW5       29.92R
HUNTINGTON     MOCLDY    49  47  93 CALM      29.91S FOG
CHARLESTON       N/A     49  49 100 CALM      29.91S FOG
PINEVILLE*       N/A     47  46  95 MISG      29.95F
BECKLEY          N/A     47  46  97 N8        29.89F
BLUEFIELD      CLOUDY    47  43  86 VRB5      29.91R
LOGAN CO APT*  FOG       50  50 100 CALM      29.91S VSB<1/4
$$

VAZ002-007-008-TNZ017-027-036-066-071-260600
...SOUTHWEST VIRGINIA/EAST TENNESSEE...

CITY           SKY/WX    TMP DP  RH WIND       PRES   REMARKS
WISE*          MOCLDY    48  48 100 N6        29.93F
JONESVILLE*      N/A     48  48 100 CALM      29.95S
ABINGDON*      CLOUDY    55  50  83 N5        29.91S
BRISTOL        CLOUDY    56  51  84 CALM      29.91S
MORRISTOWN*    PTCLDY    54  52  94 W6        29.93R
SEVIERVILLE*   CLOUDY    55  54  94 CALM      29.93S
KNOXVILLE      CLOUDY    56  52  86 NW3       29.93R
LAFOLLETTE*    PTCLDY    52  50  93 CALM      29.97S
OAK RIDGE        N/A     53  53 100 CALM      29.94F
CROSSVILLE     CLOUDY    52  47  83 CALM      29.95S
NASHVILLE      CLOUDY    61  53  75 W3        29.92F
$$

...KEY TO REMARKS...
VSB - VISIBILITY IN MILES
WCI - WIND CHILL INDEX
HX  - HEAT INDEX

$$




USA.gov is the U.S. government's official web portal to all federal, state and local government web resources and services.